Starlink 32295

operational
NORAD ID: 62147 Int'l Des: 2024-224 Owner: SPXS Country: US Constellation: starlink
LEOCIRCULAR

Über Starlink 32295

Beschreibung wird geladen...

Live-Position

3D-Globus wird geladen...

Nächste Überflüge

Höhenverlauf

Altitude vs Time

uPlot chart will show altitude changes over time

Zweizeiliger Elementsatz

1 62147U 24224J 25351.14919603 .00010934 00000-0 40605-3 0 9998
2 62147 42.9985 264.5020 0001321 292.5682 67.5030 15.27596376 59746
Epoch: 17. Dez. 2025 • Age: 21 hours

Aktueller Status

Höhe 483.6 km
Geschwindigkeit 7.63 km/s
Subsatellitenpunkt 29.02°N, 153.6°W
Startdatum 30. Nov. 2024
Alter 1 years
Typ internet

Technische Details

Klassifizierung Payload
Masse 730.00 kg
Trockenmasse 700.00 kg
Gesamtmasse 730.00 kg
Länge 0.30 m
Durchmesser 4.10 m
Spannweite 29.00 m
Form Box + pan
Hersteller SPXS
Bus-Typ Starlink V2M
Phasenstatus In Orbit
Besitzer/Staat SPXS/US

Große Konstellationen

Loading constellations...